Regional Weather Roundup
Issued by NWS

Home | Current Version | Previous Version | Text Only | Print | Product List | Glossary On
Versions: 1 2 3 4 5 6 7 8 9 10 11 12 13 14 15 16 17 18 19 20 21 22 23 24 25 26 27 28 29 30 31 32 33 34 35 36 37 38 39 40 41 42 43 44 45 46 47 48 49 50
000
ASUS43 KLMK 011102
RWRKY
KENTUCKY REGIONAL WEATHER ROUNDUP
NATIONAL WEATHER SERVICE LOUISVILLE KY
700 AM EDT WED OCT 01 2014

NOTE "FAIR" INDICATES FEW OR NO CLOUDS BELOW 12,000 FEET
WITH NO SIGNIFICANT WEATHER AND/OR OBSTRUCTIONS TO VISIBILITY.

KYZ001>023-026-027-061>063-070>075-011200-
WESTERN AND SOUTH CENTRAL KENTUCKY

CITY           SKY/WX    TMP DP  RH WIND       PRES   REMARKS
PADUCAH        CLEAR     56  55  97 CALM      29.92R FOG
HENDERSON      NOT AVBL
OWENSBORO      CLEAR     62  60  93 E3        29.95R
HOPKINSVILLE   NOT AVBL
BOWLING GREEN  CLEAR     57  55  93 CALM      29.96R FOG
GLASGOW        PTCLDY    55  55 100 CALM      29.96R
$$

KYZ024-025-028>034-038-045-046-053-011200-
NORTH CENTRAL KENTUCKY

CITY           SKY/WX    TMP DP  RH WIND       PRES   REMARKS
LOUISVILLE/SDF PTCLDY    59  54  83 SE3       29.97R
LOUISVILLE/LOU CLEAR     57  53  86 CALM      29.98R
FORT KNOX      CLEAR     58  56  94 E6        29.96R
$$

KYZ035>037-039>044-047>052-055>060-089>105-011200-
NORTHEAST KENTUCKY

CITY           SKY/WX    TMP DP  RH WIND       PRES   REMARKS
LEXINGTON      CLOUDY    58  55  90 E3        29.98R FOG
COVINGTON      CLEAR     52  48  86 NE3       29.99R
FRANKFORT      CLEAR     54  52  93 CALM      29.97R
$$

KYZ054-064>069-076>088-106>120-011200-
SOUTHEAST KENTUCKY

CITY           SKY/WX    TMP DP  RH WIND       PRES   REMARKS
JACKSON        FOG       58  57  97 CALM      29.99R VSB 1/4
LONDON         PTCLDY    54  51  90 CALM      30.00R
SOMERSET       CLEAR     52  52 100 CALM      30.00R FOG
MIDDLESBORO    FOG       53  53 100 CALM      30.02R VSB 1/4
MONTICELLO     MOSUNNY   51  51 100 CALM      30.00R FOG
$$



USA.gov is the U.S. government's official web portal to all federal, state and local government web resources and services.